"Pseudo-MPEC" for P10Im93

Created 2018 Jul 14 14:18:22 UT using Find_Orb

Click here for an explanation of pseudo-MPECs

 
 Astrometry: 
     P10Im93  C2018 07 11)VAstrometry?AA8AdJuLwQn_*l(wauUlnS-V!e_1*Z2r-jw(N4dF51
     P10Im93  C2018 07 11gWJ;r$k'K94XI6CbG'B3-otwlWmtkXb/i2%;6pv;/1sX!tDj+1d]F51
     P10Im93  C2018 07 11#APx2b:v+!pKw24b+redacted;F=H@?F\/QnthKo?#\[=XgC3g:8F51
     P10Im93  C2018 07 13LLZ1rwY8qYNeBTSHJLK`.Cuf+ZC5`IIrAG+3e;xP8S]`W01=T5muF51
     P10Im93  C2018 07 13tcUqx@HhaIsNA^i?h'LLA)6STai!6cdFZ=T?*;h#C/bg(*nUV68FF51
     P10Im93 |C2018 07 14Cm^\!O@u4]7iA^DD\-`I5kqD!a7H^*C@seeXLtxG/[8R7Yj[WLBr807
     P10Im93 |C2018 07 14u1=G0r.Gtm+wjKUScchU;Y4+nE26qa!h.1a=X[0=XTCgpCt3,h!u807
     P10Im93 |C2018 07 14V`iUrYMZ[;hl_%8Ivp#?8sb2,HOtI$P0n`('3(_/+DhwndmNEOCP807

Station data:
(807) Cerro Tololo Observatory, La Serena  (S30.169136 W70.805900)  Chile.
   1.5-m Ritchey-Chrétien.
(F51) Pan-STARRS 1, Haleakala  (N20.707235 W156.255910)  US/Hawaii.
   Observers N. Primak, A. Schultz, S. Watters, J. Thiel, T. Goggia. Measurer
   PS1 Science Consortium. 1.8-m Ritchey-Chrétien + CCD.

Orbital elements:  P10Im93
   Perihelion 2018 Jul 11.460105 +/- 0.00424 TT = 11:02:33 (JD 2458310.960105)
Epoch 2018 Jul 14.0 TT = JDT 2458313.5   Earth MOID: 0.0373   AutoNEOCP
M   0.79249 +/- 0.0044              (J2000 ecliptic)
n   0.31201871 +/- 0.00192          Peri.  180.30162 +/- 0.0046
a   2.15285916 +/- 0.00882          Node   108.83388 +/- 0.0006
e   0.5104462 +/- 0.00195           Incl.   11.18353 +/- 0.027
P   3.16                   H 26.3   G  0.15   U  8.5  
q 1.05394031 +/- 0.000114    Q 3.25177800 +/- 0.0175
From 8 observations 2018 July 11-14; mean residual 0".24
Residuals in arcseconds: 
180711 F51  .27-  .22+    180713 F51  .02+  .13+    180714 807  .02+  .42+    
180711 F51  .20+  .28-    180713 F51  .05-  .15-    180714 807  .00   .24+    
180711 F51  .08+  .06+    180714 807  .00   .64-    

Ephemerides (geocentric):
Date (UTC) HH   RA              Dec         delta   r     elong  mag " sig PA
---- -- -- --  -------------   -----------  ------ ------ -----  --- ---- ---
2018 07 14 14  21 19 11.066   -35 16 54.77  .04241 1.0546 153.4 20.7  .22  94
2018 07 14 15  21 20 16.413   -35 24 24.79  .04251 1.0546 153.1 20.7  .21  92
2018 07 14 16  21 21 21.636   -35 31 50.39  .04261 1.0546 152.9 20.8  .20  89
2018 07 14 17  21 22 26.733   -35 39 11.60  .04272 1.0547 152.7 20.8  .20  86
2018 07 14 18  21 23 31.702   -35 46 28.42  .04282 1.0547 152.5 20.8  .19  83
2018 07 14 19  21 24 36.539   -35 53 40.87  .04293 1.0547 152.3 20.8  .18  80
2018 07 14 20  21 25 41.243   -36 00 48.96  .04304 1.0547 152.0 20.8  .18  77
2018 07 14 21  21 26 45.809   -36 07 52.71  .04314 1.0547 151.8 20.8  .17  73
2018 07 14 22  21 27 50.236   -36 14 52.14  .04325 1.0548 151.6 20.8  .17  70
2018 07 14 23  21 28 54.522   -36 21 47.27  .04336 1.0548 151.4 20.8  .16  66
2018 07 15 00  21 29 58.663   -36 28 38.10  .04347 1.0548 151.2 20.8  .16  62
2018 07 15 01  21 31 02.657   -36 35 24.67  .04358 1.0548 151.0 20.9  .16  57
2018 07 15 02  21 32 06.501   -36 42 06.99  .04369 1.0548 150.7 20.9  .16  53
2018 07 15 03  21 33 10.194   -36 48 45.08  .04381 1.0549 150.5 20.9  .15  48
2018 07 15 04  21 34 13.733   -36 55 18.96  .04392 1.0549 150.3 20.9  .15  44
2018 07 15 05  21 35 17.115   -37 01 48.65  .04403 1.0549 150.1 20.9  .16  39
2018 07 15 06  21 36 20.338   -37 08 14.17  .04415 1.0549 149.9 20.9  .16  35
2018 07 15 07  21 37 23.400   -37 14 35.54  .04426 1.0549 149.7 20.9  .16  31
2018 07 15 08  21 38 26.299   -37 20 52.79  .04438 1.0550 149.5 20.9  .16  26
2018 07 15 09  21 39 29.033   -37 27 05.94  .04450 1.0550 149.3 20.9  .17  22
2018 07 15 10  21 40 31.598   -37 33 15.00  .04461 1.0550 149.1 21.0  .17  18
2018 07 15 11  21 41 33.994   -37 39 20.02  .04473 1.0550 148.9 21.0  .18  15
2018 07 15 12  21 42 36.218   -37 45 21.00  .04485 1.0550 148.7 21.0  .18  11
2018 07 15 13  21 43 38.268   -37 51 17.97  .04497 1.0551 148.5 21.0  .19   8
2018 07 15 14  21 44 40.142   -37 57 10.95  .04509 1.0551 148.3 21.0  .20   5
2018 07 15 15  21 45 41.839   -38 02 59.98  .04522 1.0551 148.1 21.0  .20   2
2018 07 15 16  21 46 43.356   -38 08 45.08  .04534 1.0551 147.9 21.0  .21 179
2018 07 15 17  21 47 44.691   -38 14 26.26  .04546 1.0552 147.7 21.0  .22 177
2018 07 15 18  21 48 45.842   -38 20 03.56  .04558 1.0552 147.5 21.1  .23 175
2018 07 15 19  21 49 46.809   -38 25 37.01  .04571 1.0552 147.3 21.1  .24 172
2018 07 15 20  21 50 47.588   -38 31 06.62  .04583 1.0552 147.1 21.1  .25 170
2018 07 15 21  21 51 48.179   -38 36 32.43  .04596 1.0553 146.9 21.1  .26 168
2018 07 15 22  21 52 48.580   -38 41 54.47  .04609 1.0553 146.7 21.1  .26 167
2018 07 15 23  21 53 48.788   -38 47 12.75  .04621 1.0553 146.5 21.1  .27 165
2018 07 16 00  21 54 48.803   -38 52 27.31  .04634 1.0553 146.4 21.1  .28 163
2018 07 16 01  21 55 48.623   -38 57 38.17  .04647 1.0554 146.2 21.1  .29 162
2018 07 16 02  21 56 48.246   -39 02 45.37  .04660 1.0554 146.0 21.1  .30 160
2018 07 16 03  21 57 47.672   -39 07 48.92  .04673 1.0554 145.8 21.1  .31 159
2018 07 16 04  21 58 46.898   -39 12 48.87  .04686 1.0554 145.6 21.2  .32 158
2018 07 16 05  21 59 45.923   -39 17 45.22  .04699 1.0555 145.4 21.2  .33 157
2018 07 16 06  22 00 44.745   -39 22 38.02  .04712 1.0555 145.3 21.2  .34 156
2018 07 16 07  22 01 43.365   -39 27 27.29  .04725 1.0555 145.1 21.2  .36 154
2018 07 16 08  22 02 41.779   -39 32 13.06  .04739 1.0556 144.9 21.2  .37 153
2018 07 16 09  22 03 39.988   -39 36 55.36  .04752 1.0556 144.7 21.2  .38 152
2018 07 16 10  22 04 37.989   -39 41 34.22  .04765 1.0556 144.5 21.2  .39 151
2018 07 16 11  22 05 35.783   -39 46 09.66  .04779 1.0556 144.4 21.2  .40 151
2018 07 16 12  22 06 33.366   -39 50 41.72  .04792 1.0557 144.2 21.2  .41 150
2018 07 16 13  22 07 30.740   -39 55 10.42  .04806 1.0557 144.0 21.3  .42 149